When you browse on this site, cookies collect data to enhance your experience and personalize the content and advertising you see.
Visit our Privacy Policy to learn more. By continuing to use the site, you agree to this use of cookies and data.
  • In Spain
  • List of Countries
  • For 7 days
  • Water Temperature
  • Weather Map
  • Weather Widgets
  • user-avatar
    Login

    Hourly Weather Preston

    Today, 5 December, Thursday

    Time Temperature Precipitation Wind Pressure Humidity
    00:00 +5°C° 0 mm 4 mps 761 mmHg 93%
    01:00 +5°C° 0 mm 4 mps 760 mmHg 92%
    02:00 +5°C° 0 mm 5 mps 760 mmHg 91%
    03:00 +5°C° 0 mm 5 mps 760 mmHg 91%
    04:00 +5°C° 0 mm 5 mps 760 mmHg 89%
    05:00 +4°C° 0 mm 6 mps 760 mmHg 88%
    06:00 +5°C° 0 mm 5 mps 759 mmHg 88%
    07:00 +4°C° 0 mm 6 mps 759 mmHg 88%
    08:00 +4°C° 0 mm 6 mps 759 mmHg 88%
    09:00 +4°C° 0 mm 6 mps 758 mmHg 88%
    10:00 +5°C° 0 mm 7 mps 757 mmHg 86%
    11:00 +5°C° 0 mm 7 mps 757 mmHg 84%
    12:00 +6°C° 0 mm 7 mps 756 mmHg 82%
    13:00 +6°C° 0.5 mm 7 mps 755 mmHg 85%
    14:00 +6°C° 0.5 mm 7 mps 753 mmHg 87%
    15:00 +7°C° 0.5 mm 8 mps 752 mmHg 89%
    16:00 +7°C° 0.2 mm 9 mps 752 mmHg 90%
    17:00 +8°C° 0.2 mm 10 mps 751 mmHg 90%
    18:00 +9°C° 0.2 mm 11 mps 751 mmHg 90%
    19:00 +9°C° 1.5 mm 11 mps 750 mmHg 91%
    20:00 +9°C° 1.5 mm 11 mps 750 mmHg 92%
    21:00 +9°C° 1.5 mm 11 mps 750 mmHg 92%
    22:00 +9°C° 0.4 mm 10 mps 750 mmHg 92%
    23:00 +9°C° 0.4 mm 10 mps 750 mmHg 92%

    Tomorrow, 6 December, Friday

    Time Temperature Precipitation Wind Pressure Humidity
    00:00 +9°C° 0.4 mm 10 mps 749 mmHg 91%
    01:00 +9°C° 0.5 mm 10 mps 749 mmHg 92%
    02:00 +10°C° 0.5 mm 9 mps 748 mmHg 93%
    03:00 +10°C° 0.5 mm 9 mps 748 mmHg 93%
    04:00 +10°C° 0 mm 9 mps 748 mmHg 93%
    05:00 +10°C° 0 mm 9 mps 748 mmHg 93%
    06:00 +10°C° 0 mm 8 mps 747 mmHg 92%
    07:00 +10°C° 0.2 mm 8 mps 747 mmHg 91%
    08:00 +10°C° 0.2 mm 8 mps 746 mmHg 89%
    09:00 +10°C° 0.2 mm 8 mps 746 mmHg 88%
    10:00 +10°C° 0.3 mm 8 mps 746 mmHg 86%
    11:00 +10°C° 0.3 mm 8 mps 745 mmHg 84%
    12:00 +10°C° 0.3 mm 8 mps 745 mmHg 82%
    13:00 +9°C° 0.9 mm 8 mps 745 mmHg 83%
    14:00 +7°C° 0.9 mm 8 mps 745 mmHg 84%
    15:00 +7°C° 0.9 mm 9 mps 745 mmHg 85%
    16:00 +7°C° 0.1 mm 8 mps 746 mmHg 85%
    17:00 +7°C° 0.1 mm 8 mps 747 mmHg 85%
    18:00 +7°C° 0.1 mm 8 mps 748 mmHg 85%
    19:00 +8°C° 0 mm 7 mps 749 mmHg 86%
    20:00 +8°C° 0 mm 7 mps 750 mmHg 86%
    21:00 +6°C° 0 mm 7 mps 750 mmHg 87%
    22:00 +6°C° 0 mm 7 mps 751 mmHg 87%
    23:00 +6°C° 0 mm 7 mps 751 mmHg 87%

    Day after tomorrow, 7 December, Saturday

    Time Temperature Precipitation Wind Pressure Humidity
    00:00 +6°C° 0 mm 7 mps 752 mmHg 87%
    01:00 +6°C° 0.1 mm 7 mps 752 mmHg 87%
    02:00 +6°C° 0.1 mm 7 mps 752 mmHg 87%
    03:00 +6°C° 0.1 mm 7 mps 753 mmHg 87%
    04:00 +6°C° 0.1 mm 7 mps 753 mmHg 85%
    05:00 +8°C° 0.1 mm 7 mps 754 mmHg 84%
    06:00 +8°C° 0.1 mm 7 mps 754 mmHg 83%
    07:00 +8°C° 0 mm 7 mps 754 mmHg 85%
    08:00 +8°C° 0 mm 6 mps 754 mmHg 87%
    09:00 +8°C° 0 mm 6 mps 754 mmHg 89%
    10:00 +8°C° 0 mm 6 mps 754 mmHg 89%
    11:00 +8°C° 0 mm 6 mps 754 mmHg 88%
    12:00 +8°C° 0 mm 6 mps 754 mmHg 88%
    13:00 +8°C° 0 mm 5 mps 754 mmHg 88%
    14:00 +8°C° 0 mm 5 mps 753 mmHg 87%
    15:00 +8°C° 0 mm 4 mps 752 mmHg 87%
    16:00 +8°C° 0 mm 5 mps 751 mmHg 88%
    17:00 +8°C° 0 mm 5 mps 751 mmHg 89%
    18:00 +9°C° 0 mm 5 mps 750 mmHg 90%
    19:00 +9°C° 0.7 mm 6 mps 748 mmHg 89%
    20:00 +9°C° 0.7 mm 7 mps 747 mmHg 88%
    21:00 +9°C° 0.7 mm 8 mps 746 mmHg 87%
    22:00 +10°C° 1.9 mm 9 mps 745 mmHg 88%
    23:00 +10°C° 1.9 mm 9 mps 743 mmHg 90%

    8 December, Sunday

    Time Temperature Precipitation Wind Pressure Humidity
    00:00 +11°C° 1.9 mm 10 mps 742 mmHg 91%
    01:00 +9°C° 0.1 mm 11 mps 743 mmHg 86%
    02:00 +8°C° 0.1 mm 11 mps 743 mmHg 81%
    03:00 +7°C° 0.1 mm 12 mps 744 mmHg 75%
    04:00 +7°C° 0 mm 11 mps 744 mmHg 74%
    05:00 +6°C° 0 mm 11 mps 744 mmHg 73%
    06:00 +6°C° 0 mm 10 mps 745 mmHg 73%
    07:00 +6°C° 0.2 mm 11 mps 745 mmHg 74%
    08:00 +6°C° 0.2 mm 11 mps 744 mmHg 76%
    09:00 +4°C° 0.2 mm 12 mps 744 mmHg 78%
    10:00 +4°C° 0.5 mm 12 mps 744 mmHg 78%
    11:00 +4°C° 0.5 mm 12 mps 743 mmHg 79%
    12:00 +4°C° 0.5 mm 12 mps 743 mmHg 79%
    13:00 +4°C° 0.4 mm 12 mps 742 mmHg 76%
    14:00 +4°C° 0.4 mm 12 mps 742 mmHg 73%
    15:00 +4°C° 0.4 mm 12 mps 741 mmHg 70%
    16:00 +4°C° 0.2 mm 13 mps 740 mmHg 73%
    17:00 +4°C° 0.2 mm 14 mps 739 mmHg 76%
    18:00 +4°C° 0.2 mm 15 mps 738 mmHg 80%
    19:00 +4°C° 0.6 mm 15 mps 738 mmHg 79%
    20:00 +4°C° 0.6 mm 16 mps 737 mmHg 79%
    21:00 +5°C° 0.6 mm 16 mps 736 mmHg 79%
    22:00 +4°C° 0.5 mm 16 mps 736 mmHg 79%
    23:00 +4°C° 0.5 mm 15 mps 736 mmHg 79%

    9 December, Monday

    Time Temperature Precipitation Wind Pressure Humidity
    00:00 +4°C° 0.5 mm 14 mps 736 mmHg 78%
    01:00 +4°C° 1.1 mm 14 mps 738 mmHg 80%
    02:00 +4°C° 1.1 mm 14 mps 739 mmHg 81%
    03:00 +4°C° 1.1 mm 13 mps 740 mmHg 82%
    04:00 +5°C° 0 mm 13 mps 742 mmHg 79%
    05:00 +5°C° 0 mm 13 mps 744 mmHg 76%
    06:00 +5°C° 0 mm 13 mps 746 mmHg 73%
    07:00 +5°C° 0 mm 12 mps 748 mmHg 72%
    08:00 +5°C° 0 mm 10 mps 750 mmHg 71%
    09:00 +5°C° 0 mm 9 mps 752 mmHg 69%
    10:00 +5°C° 0 mm 9 mps 753 mmHg 70%
    11:00 +6°C° 0 mm 8 mps 754 mmHg 70%
    12:00 +6°C° 0 mm 7 mps 756 mmHg 71%
    13:00 +6°C° 0 mm 7 mps 756 mmHg 74%
    14:00 +6°C° 0 mm 7 mps 756 mmHg 76%
    15:00 +6°C° 0 mm 7 mps 757 mmHg 79%
    16:00 +6°C° 0.3 mm 7 mps 757 mmHg 83%
    17:00 +6°C° 0.3 mm 7 mps 756 mmHg 87%
    18:00 +6°C° 0.3 mm 7 mps 756 mmHg 90%
    19:00 +6°C° 0.1 mm 7 mps 756 mmHg 90%
    20:00 +6°C° 0.1 mm 7 mps 755 mmHg 89%
    21:00 +6°C° 0.1 mm 7 mps 755 mmHg 88%
    22:00 +7°C° 0.4 mm 6 mps 754 mmHg 89%
    23:00 +7°C° 0.4 mm 6 mps 753 mmHg 90%

    10 December, Tuesday

    Time Temperature Precipitation Wind Pressure Humidity
    00:00 +7°C° 0.4 mm 6 mps 752 mmHg 92%
    01:00 +8°C° 1.9 mm 6 mps 751 mmHg 92%
    02:00 +8°C° 1.9 mm 7 mps 749 mmHg 93%
    03:00 +8°C° 1.9 mm 7 mps 748 mmHg 93%
    04:00 +9°C° 1.1 mm 7 mps 747 mmHg 94%
    05:00 +9°C° 1.1 mm 7 mps 745 mmHg 94%
    06:00 +10°C° 1.1 mm 7 mps 744 mmHg 95%
    07:00 +10°C° 2 mm 6 mps 743 mmHg 95%
    08:00 +10°C° 2 mm 6 mps 742 mmHg 96%
    09:00 +10°C° 2 mm 5 mps 741 mmHg 96%
    10:00 +10°C° 0.8 mm 7 mps 740 mmHg 94%
    11:00 +11°C° 0.8 mm 9 mps 739 mmHg 92%
    12:00 +11°C° 0.8 mm 11 mps 738 mmHg 90%
    13:00 +11°C° 0.8 mm 11 mps 737 mmHg 90%
    14:00 +11°C° 0.8 mm 11 mps 736 mmHg 89%
    15:00 +10°C° 0.8 mm 12 mps 736 mmHg 89%
    16:00 +9°C° 0.4 mm 11 mps 736 mmHg 84%
    17:00 +7°C° 0.4 mm 11 mps 736 mmHg 79%
    18:00 +6°C° 0.4 mm 11 mps 737 mmHg 75%
    19:00 +4°C° 0.1 mm 11 mps 737 mmHg 72%
    20:00 +4°C° 0.1 mm 11 mps 738 mmHg 69%
    21:00 +3°C° 0.1 mm 11 mps 738 mmHg 67%
    22:00 +3°C° 0.1 mm 11 mps 738 mmHg 67%
    23:00 +3°C° 0.1 mm 10 mps 738 mmHg 67%
    Show more